Location: Bailleul
(50.3375°N, 2.8513°E)
Time: 03:59:58
(UTC+00:00)

Cosmos 1980 - Pass Details

Date: 26 October 2021
Orbit: 839 x 847 km, 71.0° (Epoch: 01 December)

Event Time Altitude Azimuth Distance (km) Brightness Sun altitude
Exits shadow 04:36:23 - 332° (NNW) 3,318 6.5 -18.5°
Reaches altitude 10° 04:38:41 10° 338° (NNW) 2,472 5.9 -18.2°
Maximum altitude 04:44:10 48° 53° (NE) 1,096 4.6 -17.3°
Drops below altitude 10° 04:49:38 10° 127° (SE) 2,463 6.9 -16.4°
Sets 04:52:10 0° 133° (SE) 3,396 7.6 -16.0°
